Pittsfield, IL

1:49 PM CDT on March 28, 2017 (GMT -0500)
Pittsfield Penstone Municipal

Weather History for KPPQ - October, 2012

Change the Weather History Date:

Saturday, October 20, 2012

  Actual Average (KUIN) Record (KUIN)
Temperature  
Mean Temperature 54 °F -  
Max Temperature 59 °F 62 °F 87 °F (1953)
Min Temperature 47 °F 42 °F 22 °F (1960)
Degree Days  
Heating Degree Days 12    
Growing Degree Days 4 (Base 50)    
Moisture  
Dew Point 45 °F    
Average Humidity 79    
Maximum Humidity 91    
Minimum Humidity 59    
Precipitation  
Precipitation 0.00 in - - ()
Sea Level Pressure  
Sea Level Pressure 29.86 in    
Wind  
Wind Speed 4 mph (SW)    
Max Wind Speed 8 mph    
Max Gust Speed -    
Visibility 10 miles    
Events      
Averages and records for this station are not official NWS values.
T = Trace of Precipitation, MM = Missing Value Source: NWS Daily Summary

Daily Weather History Graph

Daily Weather History Graph

Search for Another Location

Airport or City:

Trip Planner

Search our weather history database for the weather conditions in past years. The results will help you decide how hot, cold, wet, or windy it might be!

Date:

Astronomy

Oct. 20, 2012 Rise Set
Actual Time 7:18 AM CDT 6:15 PM CDT
Civil Twilight 6:51 AM CDT 6:43 PM CDT
Nautical Twilight 6:20 AM CDT 7:14 PM CDT
Astronomical Twilight 5:49 AM CDT 7:45 PM CDT
Moon 12:54 PM CDT (10/20) 11:02 PM CDT (10/20)
Length of Visible Light 11h 51m
Length of Day
10h 57m
Waxing Crescent, 34% of the Moon is Illuminated
Oct 20
Waxing Crescent
Oct 21
First Quarter
Oct 29
Full
Nov 6
Last Quarter
Nov 13
New

Hourly Weather History & Observations

Time (CDT) Temp. Dew Point Humidity Pressure Visibility Wind Dir Wind Speed Gust Speed Precip Events Conditions
12:15 AM 47.5 °F 45.0 °F 91% 29.78 in 4.0 mi West 8.1 mph - N/A   Overcast
12:35 AM 47.5 °F 45.0 °F 91% 29.79 in 10.0 mi WNW 6.9 mph - N/A   Overcast
12:55 AM 47.7 °F 45.0 °F 90% 29.79 in 10.0 mi West 4.6 mph - N/A   Overcast
1:15 AM 48.0 °F 44.8 °F 89% 29.79 in 10.0 mi West 5.8 mph - N/A   Overcast
1:35 AM 48.2 °F 44.6 °F 87% 29.79 in 10.0 mi West 5.8 mph - N/A   Overcast
1:55 AM 48.2 °F 44.6 °F 87% 29.80 in 10.0 mi West 5.8 mph - N/A   Overcast
2:15 AM 48.4 °F 44.4 °F 86% 29.80 in 10.0 mi West 5.8 mph - N/A   Overcast
2:35 AM 48.4 °F 44.6 °F 87% 29.80 in 10.0 mi West 4.6 mph - N/A   Overcast
2:55 AM 48.4 °F 44.4 °F 86% 29.80 in 10.0 mi West 3.5 mph - N/A   Overcast
3:15 AM 48.4 °F 44.2 °F 86% 29.80 in 10.0 mi West 3.5 mph - N/A   Overcast
3:35 AM 48.2 °F 44.6 °F 87% 29.80 in 10.0 mi WNW 4.6 mph - N/A   Overcast
3:55 AM 48.4 °F 44.2 °F 86% 29.80 in 10.0 mi West 3.5 mph - N/A   Overcast
4:15 AM 48.2 °F 44.2 °F 86% 29.80 in 10.0 mi Calm Calm - N/A   Overcast
4:35 AM 48.2 °F 44.6 °F 87% 29.80 in 10.0 mi WNW 3.5 mph - N/A   Overcast
4:55 AM 48.2 °F 44.4 °F 87% 29.82 in 10.0 mi West 3.5 mph - N/A   Overcast
5:15 AM 48.2 °F 44.2 °F 86% 29.82 in 10.0 mi Calm Calm - N/A   Overcast
5:35 AM 48.2 °F 44.2 °F 86% 29.82 in 10.0 mi West 3.5 mph - N/A   Overcast
5:55 AM 48.2 °F 44.6 °F 87% 29.83 in 10.0 mi WNW 3.5 mph - N/A   Overcast
6:15 AM 48.2 °F 44.6 °F 87% 29.84 in 10.0 mi Calm Calm - N/A   Overcast
6:35 AM 48.2 °F 43.3 °F 83% 29.85 in 10.0 mi West 4.6 mph - N/A   Overcast
6:55 AM 48.2 °F 43.7 °F 84% 29.85 in 10.0 mi WSW 3.5 mph - N/A   Overcast
7:15 AM 48.2 °F 43.9 °F 85% 29.85 in 10.0 mi Calm Calm - N/A   Overcast
7:35 AM 48.2 °F 43.9 °F 85% 29.85 in 10.0 mi Calm Calm - N/A   Overcast
7:55 AM 48.2 °F 43.9 °F 85% 29.86 in 10.0 mi Calm Calm - N/A   Overcast
8:15 AM 48.4 °F 44.2 °F 86% 29.88 in 10.0 mi WSW 4.6 mph - N/A   Overcast
8:35 AM 48.7 °F 44.2 °F 84% 29.88 in 10.0 mi SW 3.5 mph - N/A   Overcast
8:55 AM 49.1 °F 44.2 °F 83% 29.89 in 10.0 mi WSW 3.5 mph - N/A   Overcast
9:15 AM 49.5 °F 44.4 °F 83% 29.90 in 10.0 mi WSW 6.9 mph - N/A   Overcast
9:35 AM 49.5 °F 44.1 °F 82% 29.90 in 10.0 mi WSW 6.9 mph - N/A   Overcast
9:55 AM 50.2 °F 44.8 °F 82% 29.90 in 10.0 mi SW 5.8 mph - N/A   Overcast
10:15 AM 50.0 °F 44.6 °F 82% 29.91 in 10.0 mi WSW 4.6 mph - N/A   Overcast
10:35 AM 50.9 °F 43.9 °F 77% 29.91 in 10.0 mi West 5.8 mph - N/A   Overcast
10:55 AM 51.8 °F 44.6 °F 76% 29.91 in 10.0 mi Calm Calm - N/A   Overcast
11:15 AM 51.8 °F 44.4 °F 76% 29.91 in 10.0 mi SW 3.5 mph - N/A   Mostly Cloudy
11:35 AM 52.3 °F 45.0 °F 76% 29.90 in 10.0 mi South 3.5 mph - N/A   Overcast
11:55 AM 52.5 °F 44.4 °F 74% 29.90 in 10.0 mi Calm Calm - N/A   Overcast
12:15 PM 53.6 °F 45.3 °F 74% 29.90 in 10.0 mi SW 5.8 mph - N/A   Overcast
12:35 PM 53.4 °F 44.4 °F 72% 29.90 in 10.0 mi Calm Calm - N/A   Overcast
12:55 PM 54.1 °F 45.5 °F 73% 29.90 in 10.0 mi SW 3.5 mph - N/A   Overcast
1:15 PM 55.6 °F 46.0 °F 70% 29.89 in 10.0 mi SSW 8.1 mph - N/A   Overcast
1:35 PM 55.0 °F 45.1 °F 69% 29.89 in 10.0 mi SSW 4.6 mph - N/A   Mostly Cloudy
1:55 PM 56.1 °F 44.8 °F 66% 29.88 in 10.0 mi Calm Calm - N/A   Clear
2:15 PM 57.6 °F 46.2 °F 66% 29.88 in 10.0 mi SW 3.5 mph - N/A   Scattered Clouds
2:35 PM 58.1 °F 46.6 °F 65% 29.87 in 10.0 mi South 4.6 mph - N/A   Scattered Clouds
2:55 PM 58.6 °F 46.4 °F 64% 29.87 in 10.0 mi SW 5.8 mph - N/A   Scattered Clouds
3:35 PM 58.5 °F 46.4 °F 64% 29.86 in 10.0 mi SSW 5.8 mph - N/A   Scattered Clouds
3:55 PM 59.4 °F 46.6 °F 63% 29.86 in 10.0 mi WSW 3.5 mph - N/A   Scattered Clouds
4:15 PM 59.4 °F 46.9 °F 63% 29.86 in 10.0 mi SSW 3.5 mph - N/A   Scattered Clouds
4:35 PM 59.2 °F 46.9 °F 64% 29.86 in 10.0 mi Calm Calm - N/A   Clear
4:55 PM 59.2 °F 47.8 °F 66% 29.85 in 10.0 mi ESE 3.5 mph - N/A   Clear
5:15 PM 60.8 °F 46.4 °F 59% 29.86 in 10.0 mi Calm Calm - N/A   Clear
5:35 PM 59.7 °F 47.3 °F 63% 29.86 in 10.0 mi Calm Calm - N/A   Clear
5:55 PM 57.9 °F 47.8 °F 69% 29.86 in 10.0 mi East 5.8 mph - N/A   Clear
6:15 PM 56.3 °F 46.9 °F 71% 29.86 in 10.0 mi East 6.9 mph - N/A   Clear
6:35 PM 55.4 °F 46.4 °F 72% 29.86 in 10.0 mi East 3.5 mph - N/A   Clear
6:55 PM 54.7 °F 46.0 °F 73% 29.86 in 10.0 mi East 3.5 mph - N/A   Clear
7:15 PM 52.7 °F 45.9 °F 78% 29.87 in 10.0 mi East 5.8 mph - N/A   Clear
7:35 PM 52.7 °F 46.0 °F 78% 29.88 in 10.0 mi East 4.6 mph - N/A   Clear
7:55 PM 52.2 °F 45.9 °F 79% 29.88 in 10.0 mi East 4.6 mph - N/A   Clear
8:15 PM 51.8 °F 45.7 °F 80% 29.88 in 10.0 mi East 4.6 mph - N/A   Clear
8:35 PM 51.4 °F 45.5 °F 80% 29.88 in 10.0 mi East 5.8 mph - N/A   Clear
8:55 PM 51.1 °F 45.5 °F 81% 29.89 in 10.0 mi ESE 4.6 mph - N/A   Clear
9:15 PM 50.0 °F 44.6 °F 82% 29.90 in 10.0 mi East 4.6 mph - N/A   Clear
9:35 PM 50.5 °F 45.3 °F 82% 29.90 in 10.0 mi East 4.6 mph - N/A   Clear
9:55 PM 50.0 °F 45.1 °F 83% 29.90 in 10.0 mi ESE 4.6 mph - N/A   Clear
10:15 PM 49.6 °F 45.1 °F 84% 29.91 in 10.0 mi East 5.8 mph - N/A   Clear
10:35 PM 49.5 °F 45.0 °F 84% 29.90 in 10.0 mi ESE 4.6 mph - N/A   Clear
10:55 PM 48.2 °F 44.6 °F 87% 29.90 in 10.0 mi ESE 4.6 mph - N/A   Clear
11:15 PM 48.6 °F 44.8 °F 87% 29.90 in 10.0 mi ESE 4.6 mph - N/A   Clear
11:35 PM 48.4 °F 44.8 °F 87% 29.90 in 10.0 mi SE 4.6 mph - N/A   Clear
11:55 PM 47.7 °F 44.2 °F 88% 29.90 in 10.0 mi SE 5.8 mph - N/A   Clear